User: anonymous   Login
Location: Thompson
(55.7500°N, 97.8670°W)
Time: 00:47:00
(UTC-06:00)
Language:

Cosmos 1833 Rocket - Orbit

View from above orbital plane
View from above orbital plane
View from above satellite
View from above satellite

Ground track
Ground track

The orbit data is extracted from the following two-line orbital elements,

1 17590U 87027B   16337.70596623 -.00000233  00000-0 -92654-4 0  9994
2 17590  71.0023 203.7112 0007280 251.7164 108.3168 14.16735028536295
Epoch (UTC): 02 December 2016 16:56:35
Eccentricity: 0.0007280
inclination: 71.0023°
perigee height: 831 km
apogee height: 841 km
right ascension of ascending node: 203.7112°
argument of perigee: 251.7164°
revolutions per day: 14.16735028
mean anomaly at epoch: 108.3168°
orbit number at epoch: 53629

The dashed part of the orbit path shows where the satellite is in the earth's shadow,  

DLR